Volver al catálogo

STARLINK-35659

ActivoComunicacionesVLEO
NORAD 66385·PAYLOAD·🇺🇸 United States

Lanzado Nov 8, 2025 desde Cape Canaveral Space Force Station

Loading…

Próximos Pases (próximas 24 horas)

TLE

ActualizadoSource: CelesTrak SupGP

Época: Sep 14, 2026, 23:10 UTC

1 66385C 25257F   26257.96576389  .00025033  00000+0  73977-3 0  2579
2 66385  53.1596  53.4645 0001144  75.8471 314.3328 15.34371686    17

Sigue STARLINK-35659 en tiempo real con AllMySat

Download on the App Store